Time,TemperatureF,DewpointF,PressureIn,WindDirection,WindDirectionDegrees,WindSpeedMPH,WindSpeedGustMPH,Humidity,HourlyPrecipIn,Conditions,Clouds,dailyrainin,SoftwareType,DateUTC
2013-10-07 00:13:00,49.0,46.0,30.11,SSE,155,0.0,0.0,91,0.00,,,0.00,,2013-10-07 05:13:00,
2013-10-07 00:22:00,48.0,45.0,30.11,SSE,155,0.0,0.0,91,0.00,,,0.00,,2013-10-07 05:22:00,
2013-10-07 00:43:00,48.0,45.0,30.11,SSE,155,0.0,0.0,91,0.00,,,0.00,,2013-10-07 05:43:00,
2013-10-07 00:52:00,48.0,45.0,30.10,SSE,155,0.0,0.0,91,0.00,,,0.00,,2013-10-07 05:52:00,
2013-10-07 01:12:00,47.0,45.0,30.11,SSE,155,0.0,0.0,91,0.00,,,0.00,,2013-10-07 06:12:00,
2013-10-07 01:21:00,47.0,45.0,30.11,SSE,155,0.0,0.0,92,0.00,,,0.00,,2013-10-07 06:21:00,
2013-10-07 01:42:00,46.0,44.0,30.11,SSE,155,0.0,0.0,92,0.00,,,0.00,,2013-10-07 06:42:00,
2013-10-07 01:52:00,46.0,44.0,30.12,SSE,155,0.0,0.0,93,0.00,,,0.00,,2013-10-07 06:52:00,
2013-10-07 02:12:00,46.0,44.0,30.12,SSE,155,0.0,0.0,93,0.00,,,0.00,,2013-10-07 07:12:00,
2013-10-07 02:22:00,46.0,44.0,30.13,SSE,155,0.0,0.0,93,0.00,,,0.00,,2013-10-07 07:22:00,
2013-10-07 02:42:00,45.0,43.0,30.13,SSE,155,0.0,0.0,93,0.00,,,0.00,,2013-10-07 07:42:00,
2013-10-07 02:52:00,45.0,43.0,30.13,SSE,155,0.0,0.0,93,0.00,,,0.00,,2013-10-07 07:52:00,
2013-10-07 03:21:00,44.0,42.0,30.14,SSE,155,0.0,0.0,93,0.00,,,0.00,,2013-10-07 08:21:00,
2013-10-07 03:52:00,44.0,42.0,30.14,SSE,155,0.0,0.0,94,0.00,,,0.00,,2013-10-07 08:52:00,
2013-10-07 04:11:00,43.0,41.0,30.15,SSE,155,0.0,0.0,94,0.00,,,0.00,,2013-10-07 09:11:00,
2013-10-07 04:21:00,44.0,42.0,30.15,SSE,155,0.0,0.0,94,0.00,,,0.00,,2013-10-07 09:21:00,
2013-10-07 04:43:00,44.0,42.0,30.15,SSE,155,0.0,0.0,94,0.00,,,0.00,,2013-10-07 09:43:00,
2013-10-07 04:53:00,43.0,41.0,30.15,SSE,155,0.0,0.0,94,0.00,,,0.00,,2013-10-07 09:53:00,
2013-10-07 05:13:00,43.0,41.0,30.16,SSE,155,0.0,0.0,94,0.00,,,0.00,,2013-10-07 10:13:00,
2013-10-07 05:23:00,43.0,41.0,30.16,SSE,155,0.0,0.0,94,0.00,,,0.00,,2013-10-07 10:23:00,
2013-10-07 05:42:00,42.0,40.0,30.16,SSE,155,0.0,0.0,94,0.00,,,0.00,,2013-10-07 10:42:00,
2013-10-07 05:53:00,43.0,42.0,30.17,SSE,155,0.0,0.0,95,0.00,,,0.00,,2013-10-07 10:53:00,
2013-10-07 06:12:00,42.0,40.0,30.17,SSE,155,0.0,0.0,94,0.00,,,0.00,,2013-10-07 11:12:00,
2013-10-07 06:22:00,42.0,41.0,30.17,SSE,155,0.0,0.0,95,0.00,,,0.00,,2013-10-07 11:22:00,
2013-10-07 06:42:00,42.0,41.0,30.18,SSE,155,0.0,0.0,95,0.00,,,0.00,,2013-10-07 11:42:00,
2013-10-07 06:52:00,41.0,40.0,30.18,SSE,155,0.0,0.0,95,0.00,,,0.00,,2013-10-07 11:52:00,
2013-10-07 07:12:00,42.0,41.0,30.19,SSE,155,0.0,0.0,95,0.00,,,0.00,,2013-10-07 12:12:00,
2013-10-07 07:22:00,42.0,41.0,30.19,SSE,155,0.0,0.0,95,0.00,,,0.00,,2013-10-07 12:22:00,
2013-10-07 07:43:00,42.0,41.0,30.19,SSE,155,0.0,0.0,95,0.00,,,0.00,,2013-10-07 12:43:00,
2013-10-07 07:52:00,42.0,41.0,30.20,SSE,155,0.0,0.0,95,0.00,,,0.00,,2013-10-07 12:52:00,
2013-10-07 08:11:00,42.0,41.0,30.20,SSE,155,0.0,0.0,95,0.00,,,0.00,,2013-10-07 13:11:00,
2013-10-07 08:22:00,42.0,41.0,30.20,SSE,155,0.0,0.0,95,0.00,,,0.00,,2013-10-07 13:22:00,
2013-10-07 08:42:00,42.0,41.0,30.21,SSE,155,0.0,0.0,96,0.00,,,0.00,,2013-10-07 13:42:00,
2013-10-07 08:52:00,43.0,42.0,30.22,SSE,155,0.0,0.0,96,0.00,,,0.00,,2013-10-07 13:52:00,
2013-10-07 09:11:00,44.0,43.0,30.22,SSE,155,0.0,0.0,96,0.00,,,0.00,,2013-10-07 14:11:00,
2013-10-07 09:22:00,46.0,45.0,30.22,SSE,155,0.0,0.0,96,0.00,,,0.00,,2013-10-07 14:22:00,
2013-10-07 09:42:00,49.0,44.0,30.23,North,349,0.0,4.0,82,0.00,,,0.00,,2013-10-07 14:42:00,
2013-10-07 09:52:00,52.0,43.0,30.24,NNE,23,0.0,4.0,70,0.00,,,0.00,,2013-10-07 14:52:00,
2013-10-07 10:11:00,54.0,43.0,30.24,North,349,0.0,3.0,65,0.00,,,0.00,,2013-10-07 15:11:00,
2013-10-07 10:22:00,56.0,42.0,30.24,NNW,343,0.0,5.0,59,0.00,,,0.00,,2013-10-07 15:22:00,
2013-10-07 10:43:00,57.0,44.0,30.24,NNE,19,0.0,2.0,62,0.00,,,0.00,,2013-10-07 15:43:00,
2013-10-07 10:53:00,59.0,43.0,30.24,North,5,0.0,5.0,55,0.00,,,0.00,,2013-10-07 15:53:00,
2013-10-07 11:13:00,61.0,41.0,30.24,NNE,19,1.0,4.0,48,0.00,,,0.00,,2013-10-07 16:13:00,
2013-10-07 11:23:00,62.0,42.0,30.25,North,356,0.0,4.0,48,0.00,,,0.00,,2013-10-07 16:23:00,
2013-10-07 11:53:00,65.0,42.0,30.25,North,353,0.0,3.0,43,0.00,,,0.00,,2013-10-07 16:53:00,
2013-10-07 12:12:00,67.0,43.0,30.25,WSW,249,0.0,3.0,41,0.00,,,0.00,,2013-10-07 17:12:00,
2013-10-07 12:22:00,67.0,40.0,30.25,NW,326,2.0,6.0,37,0.00,,,0.00,,2013-10-07 17:22:00,
2013-10-07 12:52:00,68.0,44.0,30.24,WSW,239,0.0,2.0,42,0.00,,,0.00,,2013-10-07 17:52:00,
2013-10-07 13:12:00,69.0,41.0,30.23,NW,309,1.0,5.0,36,0.00,,,0.00,,2013-10-07 18:12:00,
2013-10-07 13:22:00,70.0,42.0,30.23,East,79,1.0,3.0,36,0.00,,,0.00,,2013-10-07 18:22:00,
2013-10-07 13:42:00,71.0,43.0,30.22,NE,49,0.0,3.0,36,0.00,,,0.00,,2013-10-07 18:42:00,
2013-10-07 13:52:00,71.0,43.0,30.22,NW,316,0.0,3.0,37,0.00,,,0.00,,2013-10-07 18:52:00,
2013-10-07 14:11:00,72.0,44.0,30.21,NE,37,1.0,3.0,36,0.00,,,0.00,,2013-10-07 19:11:00,
2013-10-07 14:22:00,72.0,44.0,30.20,North,6,0.0,2.0,37,0.00,,,0.00,,2013-10-07 19:22:00,
2013-10-07 14:42:00,74.0,45.0,30.20,East,94,0.0,1.0,35,0.00,,,0.00,,2013-10-07 19:42:00,
2013-10-07 14:52:00,73.0,43.0,30.19,North,7,0.0,2.0,34,0.00,,,0.00,,2013-10-07 19:52:00,
2013-10-07 15:12:00,73.0,42.0,30.19,SW,229,0.0,3.0,33,0.00,,,0.00,,2013-10-07 20:12:00,
2013-10-07 15:22:00,73.0,42.0,30.18,WNW,291,0.0,2.0,33,0.00,,,0.00,,2013-10-07 20:22:00,
2013-10-07 15:43:00,74.0,42.0,30.18,West,279,0.0,1.0,32,0.00,,,0.00,,2013-10-07 20:43:00,
2013-10-07 15:52:00,74.0,41.0,30.18,North,359,0.0,4.0,30,0.00,,,0.00,,2013-10-07 20:52:00,
2013-10-07 16:12:00,73.0,41.0,30.18,North,350,1.0,3.0,31,0.00,,,0.00,,2013-10-07 21:12:00,
2013-10-07 16:23:00,72.0,42.0,30.18,SW,235,0.0,1.0,34,0.00,,,0.00,,2013-10-07 21:23:00,
2013-10-07 16:43:00,73.0,45.0,30.17,NE,56,0.0,2.0,37,0.00,,,0.00,,2013-10-07 21:43:00,
2013-10-07 16:55:00,72.0,44.0,30.17,East,84,0.0,1.0,37,0.00,,,0.00,,2013-10-07 21:55:00,
2013-10-07 17:13:00,72.0,46.0,30.16,SW,218,0.0,1.0,39,0.00,,,0.00,,2013-10-07 22:13:00,
2013-10-07 17:24:00,71.0,44.0,30.16,SW,228,0.0,0.0,38,0.00,,,0.00,,2013-10-07 22:24:00,
2013-10-07 17:43:00,71.0,43.0,30.16,NNW,327,0.0,2.0,37,0.00,,,0.00,,2013-10-07 22:43:00,
2013-10-07 17:53:00,70.0,45.0,30.16,NNW,329,0.0,0.0,41,0.00,,,0.00,,2013-10-07 22:53:00,
2013-10-07 18:22:00,69.0,44.0,30.16,SW,226,0.0,0.0,41,0.00,,,0.00,,2013-10-07 23:22:00,
2013-10-07 18:52:00,68.0,45.0,30.15,SE,141,0.0,0.0,44,0.00,,,0.00,,2013-10-07 23:52:00,
2013-10-07 19:11:00,67.0,46.0,30.16,SE,141,0.0,0.0,47,0.00,,,0.00,,2013-10-08 00:11:00,
2013-10-07 19:22:00,66.0,48.0,30.15,SE,141,0.0,0.0,53,0.00,,,0.00,,2013-10-08 00:22:00,
2013-10-07 19:42:00,64.0,49.0,30.16,SE,141,0.0,0.0,59,0.00,,,0.00,,2013-10-08 00:42:00,
2013-10-07 19:52:00,62.0,49.0,30.16,SE,141,0.0,0.0,63,0.00,,,0.00,,2013-10-08 00:52:00,
2013-10-07 20:12:00,60.0,48.0,30.16,SE,141,0.0,0.0,65,0.00,,,0.00,,2013-10-08 01:12:00,
2013-10-07 20:21:00,59.0,49.0,30.16,SE,141,0.0,0.0,69,0.00,,,0.00,,2013-10-08 01:21:00,
2013-10-07 20:42:00,58.0,49.0,30.16,SE,141,0.0,0.0,71,0.00,,,0.00,,2013-10-08 01:42:00,
2013-10-07 20:52:00,57.0,48.0,30.17,SE,141,0.0,0.0,73,0.00,,,0.00,,2013-10-08 01:52:00,
2013-10-07 21:11:00,57.0,49.0,30.17,SE,141,0.0,0.0,75,0.00,,,0.00,,2013-10-08 02:11:00,
2013-10-07 21:22:00,56.0,49.0,30.18,SE,141,0.0,0.0,76,0.00,,,0.00,,2013-10-08 02:22:00,
2013-10-07 21:42:00,56.0,49.0,30.18,SE,142,0.0,0.0,77,0.00,,,0.00,,2013-10-08 02:42:00,
2013-10-07 21:52:00,55.0,49.0,30.18,SE,142,0.0,0.0,79,0.00,,,0.00,,2013-10-08 02:52:00,
2013-10-07 22:11:00,55.0,49.0,30.18,SE,142,0.0,0.0,81,0.00,,,0.00,,2013-10-08 03:11:00,
2013-10-07 22:22:00,54.0,50.0,30.18,SE,142,0.0,0.0,85,0.00,,,0.00,,2013-10-08 03:22:00,
2013-10-07 22:55:00,53.0,49.0,30.18,SE,141,0.0,0.0,86,0.00,,,0.00,,2013-10-08 03:55:00,
2013-10-07 23:14:00,52.0,48.0,30.18,SE,142,0.0,0.0,87,0.00,,,0.00,,2013-10-08 04:14:00,
2013-10-07 23:23:00,52.0,48.0,30.18,SE,142,0.0,0.0,87,0.00,,,0.00,,2013-10-08 04:23:00,
2013-10-07 23:43:00,51.0,48.0,30.18,SE,142,0.0,0.0,88,0.00,,,0.00,,2013-10-08 04:43:00,
2013-10-07 23:53:00,51.0,48.0,30.18,SE,142,0.0,0.0,89,0.00,,,0.00,,2013-10-08 04:53:00,